Location: Grossmotten
(48.5500°N, 15.3833°E)
Time: 08:40:38
(UTC+00:00)

Cosmos 1697 Rocket - Pass Details

Date: 15 November 2019
Orbit: 833 x 842 km, 71.0° (Epoch: 05 December)

Event Time Altitude Azimuth Distance (km) Brightness Sun altitude
Exits shadow 04:30:32 14° 239° (WSW) 2,148 4.4 -15.7°
Drops below altitude 10° 04:32:05 10° 224° (SW) 2,441 4.8 -15.5°
Sets 04:35:21 0° 204° (SSW) 3,368 5.7 -14.9°
